Showing default

KUIPER-00507, 68887

Orbit data source: Space-Track

KUIPER-00507, 68887 is an American payload satellite in LEO that was launched on Tue, 28 Apr 2026 UTC launched from the Air Force Eastern Test Range (AFETR). Payload-class satellites include a variety of spacecraft equipped with specific instruments for various scientific and technological missions. These include communications satellites like Starlink; space stations such as the ISS; scientific satellites like the Hubble; Earth observation satellites from companies like Planet Labs, Umbra, and HawkEye 360; GPS; miniature CubeSats for education and research; and military/defense satellites.

Loading next visibility...
Identifier
68887, 2026-095Z
Orbit
LEO
Country
Flag of USUS
Related business
None
Manufacturer
Unknown
Mission
Operational spacecraft
Bus & Motor
Unknown
Mass
Unknown
Launch date (UTC)
2026-04-28 (4 days ago)
Launch vehicle
Unknown
Launch site
Air Force Eastern Test Range (AFETR)
Object type
Payload
Rocket body
Debris
Shape & HBR
Unknown
Radar Cross Section
RCS unknown

Expand to show TLE details & history
Last TLE update: 9 hours ago

TLE from 9 hours ago
0 KUIPER-00507
1 68887U 26095Z   26122.16670139  .00006627  00000-0  18195-3 0  9993
2 68887  51.8825 104.8626 0001378  60.0399 162.0989 15.38474872  1309
Epoch: 2026-05-02T04:00Z
TLE epoch observation values (Epoch: 2026-05-02T04:00:03.000Z)
Latitude
-32.06838°
Longitude
34.02652°
Altitude
461.326 km
Speed
7.635 km/s
True Right ascension
20h 56m 30s
True Declination
-31° 54' 26"
Sunlit
Object was in daylight at epoch
Visualization orbit readout
Latitude
Unknown
Longitude
Unknown
Altitude
Unknown
Speed
Unknown
Apparent Right ascension
Unknown
Apparent Declination
Unknown
Sunlit
N/A
Visualization observer readout
Local Sidereal Time
20:27:22
Azimuth
Unknown
Elevation
Unknown
Doppler factor
Unknown
Orbital elements
Apogee altitude
452.025 km
Perigee altitude
450.143 km
Semi-major axis
6,829.221 km
Eccentricity
0.00014
Inclination
51.8825°
RAAN
104.8626°
Arg. of periapsis
60.0399°
True anomaly
162.10375°
Mean anomaly
162.0989°
Eccentric anomaly
162.10133°
Mean motion
3.8458 °/min
Orbital period
93.61 mins
BSTAR
0.00018195
Loading maneuver chart data...
Computing Atmospheric mass density...
Loading historical data...
Loading historical data...
Loading historical data...
Loading historical data...
Loading historical data...
Loading historical data...
Loading historical data...

Documentation

Showing up to 5 results
|